Weather History for Danville, VA

Change the Weather History Date:

Wednesday, February 8, 2012

  Actual Average Record
Temperature  
Mean Temperature 35 °F 40 °F  
Max Temperature 43 °F 48 °F 71 °F (2005)
Min Temperature 26 °F 31 °F 12 °F (1977)
Degree Days  
Heating Degree Days 30 25  
Month to date heating degree days 176 207  
Since 1 July heating degree days 2272 2535  
Cooling Degree Days 0 0  
Month to date cooling degree days 0 0  
Year to date cooling degree days 0 0  
Moisture  
Dew Point 30 °F    
Average Humidity 74    
Maximum Humidity 92    
Minimum Humidity 55    
Precipitation  
Precipitation T in 0.11 in 1.31 in (1965)
Month to date precipitation 0.48 0.91  
Year to date precipitation 2.47 4.33  
Snow  
Snow 0.00 in - - ()
Month to date snowfall 0.0  
Since 1 July snowfall 0.0  
Snow Depth 0.00 in    
Sea Level Pressure  
Sea Level Pressure 30.16 in    
Wind  
Wind Speed 4 mph (NNW)    
Max Wind Speed 12 mph    
Max Gust Speed 15 mph    
Visibility 10 miles    
Events Rain    
T = Trace of Precipitation, MM = Missing Value Source: NWS Daily Summary

Daily Weather History Graph

Daily Weather History Graph

Search for Another Location

Airport:

Trip Planner

Search our weather history database for the weather conditions in past years. The results will help you decide how hot, cold, wet, or windy it might be!

Date:

Astronomy

Feb. 08, 2012 Rise Set
Actual Time 7:13 AM EST 5:50 PM EST
Civil Twilight 6:46 AM EST 6:17 PM EST
Nautical Twilight 6:15 AM EST 6:47 PM EST
Astronomical Twilight 5:45 AM EST 7:17 PM EST
Moon 7:04 PM EST (2/8) 7:18 AM EST (2/8)
Length of Visible Light 11h 30m
Length of Day
10h 36m
Full, 99% of the Moon is Illuminated
Feb 8
Full
Feb 14
Last Quarter
Feb 21
New
Feb 29
First Quarter
Mar 8
Full

Hourly Weather History & Observations

Time (EST) Temp. Windchill Dew Point Humidity Pressure Visibility Wind Dir Wind Speed Gust Speed Precip Events Conditions
12:53 AM 30.9 °F - 28.0 °F 89% 30.15 in 10.0 mi Calm Calm - N/A   Clear
1:53 AM 28.0 °F - 26.1 °F 92% 30.16 in 10.0 mi Calm Calm - N/A   Clear
2:53 AM 28.0 °F - 26.1 °F 92% 30.15 in 10.0 mi Calm Calm - N/A   Clear
3:53 AM 26.1 °F 21.9 °F 25.0 °F 96% 30.17 in 10.0 mi SW 3.5 mph - N/A   Clear
4:53 AM 27.0 °F 23.0 °F 25.0 °F 92% 30.17 in 10.0 mi North 3.5 mph - N/A   Clear
5:53 AM 30.0 °F 23.2 °F 26.1 °F 85% 30.16 in 10.0 mi ENE 6.9 mph - N/A   Clear
6:53 AM 30.9 °F 26.2 °F 26.1 °F 82% 30.17 in 10.0 mi NNE 4.6 mph - N/A   Clear
7:53 AM 32.0 °F - 27.0 °F 82% 30.19 in 10.0 mi Calm Calm - N/A   Mostly Cloudy
8:53 AM 35.1 °F 30.1 °F 28.9 °F 78% 30.21 in 10.0 mi North 5.8 mph - N/A   Overcast
9:53 AM 37.0 °F 32.4 °F 30.0 °F 76% 30.22 in 10.0 mi North 5.8 mph - N/A   Overcast
10:53 AM 37.4 °F 32.8 °F 30.2 °F 75% 30.20 in 10.0 mi NNE 5.8 mph - N/A   Overcast
11:53 AM 39.0 °F - 30.9 °F 73% 30.18 in 10.0 mi Calm Calm - 0.00 in Rain Light Rain
12:53 PM 41.0 °F 38.0 °F 33.1 °F 73% 30.17 in 10.0 mi NNW 4.6 mph - 0.00 in   Overcast
1:53 PM 43.0 °F 37.7 °F 33.1 °F 68% 30.14 in 10.0 mi North 9.2 mph - N/A   Overcast
2:53 PM 42.1 °F 40.2 °F 34.0 °F 73% 30.13 in 10.0 mi NW 3.5 mph - 0.00 in   Overcast
3:53 PM 42.1 °F - 34.0 °F 73% 30.12 in 10.0 mi Calm Calm - N/A   Overcast
4:53 PM 43.0 °F 41.3 °F 35.1 °F 74% 30.12 in 10.0 mi NW 3.5 mph - N/A   Scattered Clouds
5:53 PM 39.9 °F 37.8 °F 35.1 °F 83% 30.13 in 10.0 mi NNW 3.5 mph - N/A   Mostly Cloudy
6:53 PM 35.1 °F - 33.1 °F 92% 30.13 in 10.0 mi Calm Calm - N/A   Partly Cloudy
7:53 PM 35.1 °F 29.3 °F 33.1 °F 92% 30.14 in 8.0 mi WSW 6.9 mph - N/A   Scattered Clouds
8:53 PM 39.0 °F 35.7 °F 33.1 °F 79% 30.16 in 10.0 mi WNW 4.6 mph - N/A   Overcast
9:53 PM 39.9 °F 37.8 °F 30.9 °F 70% 30.16 in 10.0 mi NNW 3.5 mph - N/A   Overcast
10:53 PM 41.0 °F 34.3 °F 27.0 °F 57% 30.17 in 10.0 mi NW 11.5 mph - N/A   Overcast
11:53 PM 39.0 °F 32.8 °F 26.1 °F 60% 30.17 in 10.0 mi NW 9.2 mph - N/A   Mostly Cloudy